Regional Weather Roundup
Issued by NWS

Home | Current Version | Previous Version | Text Only | Print | Product List | Glossary On
Versions: 1 2 3 4 5 6 7 8 9 10 11 12 13 14 15 16 17 18 19 20 21 22 23 24 25 26 27 28 29 30 31 32 33 34 35 36 37 38 39 40 41 42 43 44 45 46 47 48 49 50
000
ASUS45 KBOI 302310
RWRID

IDAHO REGIONAL WEATHER ROUNDUP
NATIONAL WEATHER SERVICE BOISE ID
500 PM MDT SAT APR 30 2016

NOTE: "FAIR" INDICATES FEW OR NO CLOUDS BELOW 12000 FEET
WITH NO SIGNIFICANT WEATHER AND/OR OBSTRUCTIONS TO VISIBILITY

IDZ012-014-010000-
SOUTHWEST IDAHO


CITY           SKY/WX    TMP DP  RH WIND       PRES   REMARKS
BOISE          SUNNY     69  35  28 NW22G35   29.99S
CALDWELL       SUNNY     68  37  32 NW22G30   30.02F
MOUNTAIN HOME  CLOUDY    67  36  31 NW16G23   29.99F
$$

IDZ016-017-010000-
SOUTHCENTRAL IDAHO


CITY           SKY/WX    TMP DP  RH WIND       PRES   REMARKS
BURLEY         PTSUNNY   57  40  52 VRB3      30.02F
JEROME         PTSUNNY   59  36  42 W7        30.03F
TWIN FALLS     PTSUNNY   56  34  43 VRB3      30.04S
$$

IDZ019>023-010000-
SOUTHEAST IDAHO


CITY           SKY/WX    TMP DP  RH WIND       PRES   REMARKS
IDAHO FALLS    LGT RAIN  57  30  35 N12G22    30.01S
POCATELLO      CLOUDY    55  39  54 E9        30.02S
REXBURG        LGT RAIN  57  30  35 NE9       30.00S
$$

IDZ006-010-011-018-031-032-010000-
CENTRAL IDAHO MOUNTAINS


CITY           SKY/WX    TMP DP  RH WIND       PRES   REMARKS
MCCALL         MOSUNNY   49  32  52 N16G25    30.10F
HAILEY         DRIZZLE   50  39  66 SE15      30.06S
STANLEY          N/A     50  25  37 NW7       30.09S
SALMON         CLOUDY    54  32  43 CALM      30.11S
CHALLIS        CLOUDY    53  30  41 NE14      30.09S
$$

IDZ002-004-006-007-026-010000-
NORTHERN IDAHO


CITY           SKY/WX    TMP DP  RH WIND       PRES   REMARKS
LEWISTON       LGT RAIN  61  44  53 VRB6      30.21S
LOWELL           N/A     62  44  51 S10G17    30.16S
COEUR D`ALENE  MOSUNNY   64  43  45 SW7       30.18S
MULLAN PASS    CLOUDY    43  31  62 CALM      30.24S
$$



USA.gov is the U.S. government's official web portal to all federal, state and local government web resources and services.